This demonstration page uses our WeatherBlox Daily Observations layout. Learn more.

38.89511, -77.03637

Hourly Observations for September 23, 2017

Temp ( °F °C ) Dew Point ( °F °C ) Humidity (%) Winds ( mph kmh ) Pressure ( in mb ) Visibility ( mi km ) Precip ( " mm )
12:52 am 00:52 Mostly Cloudy 70 21.1 65 18.3 84 84 NNW 7 11 30 1016 10 16.09344 0 0
1:52 am 01:52 Mostly Cloudy 69 20.6 62 16.7 78 78 NNW 7 11 30 1016 10 16.09344 0 0
2:52 am 02:52 Partly Cloudy 68 20 60 15.6 76 76 NNW 7 11 30 1016 10 16.09344 0 0
3:52 am 03:52 Partly Cloudy 67 19.4 60 15.6 79 79 NNW 7 11 30.03 1017 10 16.09344 0 0
4:52 am 04:52 Partly Cloudy 66 18.9 61 16.1 84 84 NNW 7 11 30.03 1017 10 16.09344 0 0
5:52 am 05:52 Partly Cloudy 65 18.3 59 15 81 81 N 7 11 30.03 1017 10 16.09344 0 0
6:52 am 06:52 Partly Cloudy 66 18.9 58 14.4 75 75 NNW 5 7 30.06 1018 10 16.09344 0 0
7:52 am 07:52 Partly Cloudy 68 20 59 15 73 73 N 7 11 30.06 1018 10 16.09344 0 0
8:52 am 08:52 Partly Cloudy 72 22.2 60 15.6 66 66 NNW 7 11 30.09 1019 10 16.09344 0 0
9:52 am 09:52 Partly Cloudy 76 24.4 60 15.6 58 58 NNW 5 7 30.09 1019 10 16.09344 0 0
10:52 am 10:52 Partly Cloudy 81 27.2 58 14.4 45 45 N 7 11 30.09 1019 10 16.09344 0 0
11:52 am 11:52 Partly Cloudy 83 28.3 59 15 44 44 NE 7 11 30.09 1019 10 16.09344 0 0
12:52 pm 12:52 Mostly Sunny 85 29.4 62 16.7 46 46 NNW 10 17 30.06 1018 10 16.09344 0 0
1:52 pm 13:52 Mostly Sunny 85 29.4 63 17.2 48 48 N 13 20 30.06 1018 10 16.09344 0 0
2:52 pm 14:52 Mostly Sunny 88 31.1 65 18.3 46 46 NNE 9 15 30.03 1017 10 16.09344 0 0
3:52 pm 15:52 Mostly Sunny 88 31.1 63 17.2 43 43 N 5 7 30.03 1017 10 16.09344 0 0
4:52 pm 16:52 Mostly Sunny 88 31.1 58 14.4 36 36 N 8 13 30.03 1017 10 16.09344 0 0
5:52 pm 17:52 Mostly Sunny 87 30.6 57 13.9 36 36 N 7 11 30.03 1017 10 16.09344 0 0
6:52 pm 18:52 Mostly Sunny 83 28.3 58 14.4 43 43 N 7 11 30.03 1017 10 16.09344 0 0
7:52 pm 19:52 Clear 81 27.2 61 16.1 51 51 N 5 7 30.03 1017 10 16.09344 0 0
8:52 pm 20:52 Clear 77 25 60 15.6 56 56 NNW 6 9 30.06 1018 10 16.09344 0 0
9:52 pm 21:52 Clear 74 23.3 65 18.3 74 74 N 6 9 30.06 1018 10 16.09344 0 0
10:52 pm 22:52 Mostly Clear 74 23.3 63 17.2 69 69 Calm 30.06 1018 10 16.09344 0 0
11:52 pm 23:52 Mostly Clear 73 22.8 65 18.3 76 76 Calm 30.06 1018 10 16.09344 0 0

Powered by AerisWeather